[[{"header":{"parameterUnit":"m.s-1","parameterCategory":1,"la1":30.2991,"la2":30.254,"lo1":-89.0895,"lo2":-89.0444,"dy":0.0017,"dx":0.0017,"nx":28,"ny":28,"refTime":"2023-10-18T03:00:00:Z","depth":0,"parameterNumber":2,"parameterNumberName":"U-component_of_WINDS"},"data":[0,0,0,0,0,0,0,0,0,0,0,0,0,0,0,0,0,0,0,0,0,0,0,0,0,0,0,0,0,0,0,0,0,0,0,0,0,0,0,0,0,0,0,0,0,0,0,0,0,0,0,0,0,0,0,0,0,0,-2.2878,-2.2878,0,-2.2884,-2.2884,-2.2884,-2.2831,-2.283,-2.2828,-2.2827,-2.2832,-2.2833,-2.2835,0,0,0,0,0,0,0,0,0,0,0,0,0,-2.2819,-2.2821,-2.2878,-2.2878,-2.2878,-2.2884,-2.2884,-2.2884,-2.2832,-2.283,-2.2828,-2.2826,-2.2831,-2.2833,-2.2835,0,0,0,0,0,0,0,0,0,0,0,0,0,-2.2837,-2.2821,-2.2878,-2.2852,-2.285,-2.2884,-2.2884,-2.2884,-2.2832,-2.283,-2.2827,-2.2825,-2.2831,-2.2833,-2.2835,-2.2893,0,0,-2.2842,-2.2843,0,0,0,0,0,0,0,0,-2.2836,-2.2839,-2.2856,-2.2854,-2.2852,-2.2855,-2.2865,-2.2887,-2.2832,-2.2839,-2.2827,-2.2824,-2.2841,-2.2842,-2.2848,-2.2893,-2.2894,-2.2842,-2.2844,-2.2845,-2.2845,0,0,0,0,0,0,0,-2.2835,-2.2839,-2.288,-2.2856,-2.2854,-2.2841,-2.2841,-2.2869,-2.2852,-2.2838,-2.2834,-2.2836,-2.284,-2.2846,-2.2848,-2.2894,-2.2842,-2.2844,-2.2846,-2.2846,-2.2987,-2.2989,0,0,0,0,0,0,-2.2837,-2.2838,-2.288,-2.288,-2.2838,-2.2843,-2.2843,-2.2856,-2.2852,-2.2849,-2.2838,-2.2833,-2.2844,-2.2846,-2.2848,-2.2915,-2.2845,-2.2847,-2.2848,-2.2985,-2.2988,-2.299,0,0,0,0,0,0,-2.2836,-2.2842,-2.288,-2.2858,-2.2862,-2.2847,-2.2861,-2.2857,-2.2864,-2.2852,-2.2848,-2.2848,-2.2842,-2.2845,-2.2883,-2.2914,-2.2848,-2.285,-2.2982,-2.2986,-2.2989,-2.305,0,0,0,0,0,0,-2.2835,-2.2842,-2.2863,-2.2859,-2.2864,-2.2914,-2.2863,-2.2859,-2.2868,-2.2862,-2.286,-2.2857,-2.284,-2.2879,-2.2885,-2.2916,-2.2852,-2.2979,-2.2984,-2.2988,-2.3045,-2.3055,-2.3064,0,0,0,0,0,-2.2833,-2.288,-2.2865,-2.287,-2.289,-2.2916,-2.2919,-2.2898,-2.2871,-2.2892,-2.2885,-2.2858,-2.2911,-2.2884,-2.2889,-2.2922,-2.2977,-2.2982,-2.2987,-2.304,-2.3053,-2.3063,0,0,0,0,0,0,-2.2887,-2.2879,-2.2862,-2.2909,-2.2914,-2.2907,-2.2933,-2.2912,-2.2924,-2.2918,-2.2893,-2.2893,-2.2935,-2.2932,-2.2902,-2.2978,-2.2939,-2.2946,-2.2977,-2.2989,-2.2998,-2.2997,-2.2853,0,0,0,0,0,-2.2904,-2.2926,-2.2918,-2.296,-2.2964,-2.2949,-2.2959,-2.2944,-2.2947,-2.2949,-2.2944,-2.2948,-2.2966,-2.2978,-2.2994,-2.3046,-2.3044,-2.3071,-2.308,-2.3088,-2.3093,-2.312,-2.3132,-2.3008,-2.3008,-2.3008,0,0,-2.294,-2.2938,-2.2953,-2.2971,-2.2973,-2.2996,-2.295,-2.2976,-2.2993,-2.2953,-2.2987,-2.2985,-2.2988,-2.3033,-2.3052,-2.3032,-2.3128,-2.3095,-2.3101,-2.3102,-2.3127,-2.3138,-2.3149,-2.3011,-2.3011,-2.301,0,0,-2.3016,-2.3018,-2.3053,-2.3057,-2.3061,-2.3051,-2.306,-2.3057,-2.3054,-2.3089,-2.3059,-2.3079,-2.311,-2.3114,-2.3119,-2.3201,-2.3175,-2.3207,-2.3255,-2.3281,-2.3291,-2.3299,-2.3327,-2.3337,-2.3213,-2.3213,-2.3213,0,-2.3059,-2.3093,-2.3074,-2.3102,-2.311,-2.3077,-2.3112,-2.3116,-2.3125,-2.3132,-2.311,-2.3149,-2.3149,-2.3194,-2.3214,-2.3221,-2.3229,-2.3205,-2.3291,-2.33,-2.3307,-2.3333,-2.3344,-2.3216,-2.3216,-2.3216,-2.3215,0,-2.3146,-2.317,-2.3198,-2.3208,-2.322,-2.3252,-2.3237,-2.3252,-2.3236,-2.3229,-2.3265,-2.3265,-2.328,-2.329,-2.3275,-2.3333,-2.3321,-2.3296,-2.3255,-2.3323,-2.3347,-2.3356,-2.3222,-2.322,-2.3219,-2.3218,0,0,-2.3251,-2.3253,-2.3264,-2.3268,-2.3272,-2.329,-2.3321,-2.3336,-2.3349,-2.3358,-2.3382,-2.341,-2.3388,-2.3395,-2.338,-2.3404,-2.3467,-2.3376,-2.3376,-2.3391,-2.353,-2.3546,-2.3558,-2.3452,-2.3454,-2.3455,-2.3529,0,-2.3324,-2.3377,-2.3361,-2.3414,-2.3435,-2.3406,-2.3433,-2.3438,-2.3433,-2.345,-2.3445,-2.3465,-2.3434,-2.3438,-2.3461,-2.3454,-2.3494,-2.3449,-2.3473,-2.3474,-2.3469,-2.3571,-2.3588,-2.3657,-2.3538,-2.354,-2.3541,0,-2.3415,-2.3428,-2.3483,-2.3484,-2.3492,-2.3517,-2.353,-2.3548,-2.3554,-2.3549,-2.3558,-2.3539,-2.3569,-2.3532,-2.3573,-2.3543,-2.3552,-2.3551,-2.3553,-2.3552,-2.3509,-2.357,-2.3679,-2.3689,-2.3556,-2.3554,-2.3553,0,-2.3484,-2.3516,-2.3553,-2.3558,-2.3561,-2.3578,-2.358,-2.3584,-2.3595,-2.3607,-2.3614,-2.363,-2.3638,-2.365,-2.3636,-2.3611,-2.3679,-2.364,-2.3674,-2.3674,-2.3687,-2.3685,-2.3796,-2.3698,-2.3698,-2.3698,-2.3697,0,-2.3565,-2.3599,-2.3584,-2.3606,-2.3644,-2.3627,-2.3665,-2.3663,-2.3668,-2.3689,-2.3665,-2.3686,-2.3667,-2.3686,-2.3676,-2.3711,-2.3715,-2.3711,-2.3707,-2.3711,-2.3711,-2.3714,-2.3708,-2.37,-2.37,-2.3699,-2.3699,0,-2.3647,-2.3638,-2.3676,-2.3677,-2.3678,-2.3706,-2.3706,-2.3726,-2.3721,-2.3749,-2.3754,-2.3745,-2.3767,-2.3755,-2.3777,-2.377,-2.3814,-2.3806,-2.3812,-2.3809,-2.3842,-2.3838,-2.3956,-2.397,-2.3866,-2.3867,-2.3868,0,-2.3697,-2.3723,-2.3727,-2.374,-2.3744,-2.3766,-2.3777,-2.3763,-2.3775,-2.3785,-2.3805,-2.3825,-2.3839,-2.3874,-2.3869,-2.3886,-2.3876,-2.3917,-2.3878,-2.3881,-2.3874,-2.3871,-2.3873,-2.3923,-2.3924,-2.3925,-2.3926,0,-2.3787,-2.3782,-2.38,-2.3817,-2.3831,-2.3844,-2.3854,-2.3866,-2.3852,-2.3868,-2.389,-2.3901,-2.3925,-2.3944,-2.3959,-2.3961,-2.3941,-2.3939,-2.3947,-2.395,-2.3952,-2.3949,-2.383,-2.3935,-2.3934,-2.3933,-2.3933,-2.3933,-2.3852,-2.3874,-2.3881,-2.3902,-2.3909,-2.3919,-2.3939,-2.3937,-2.3955,-2.3973,-2.3965,-2.399,-2.3997,-2.4015,-2.402,-2.4039,-2.4023,-2.4035,-2.4038,-2.404,-2.4044,-2.3952,-2.4042,-2.4042,-2.4042,-2.4041,-2.4041,0,-2.3939,-2.3943,-2.3962,-2.3978,-2.3995,-2.3978,-2.3989,-2.4003,-2.4026,-2.4035,-2.4051,-2.4076,-2.4096,-2.4094,-2.4112,-2.4128,-2.4119,-2.4133,-2.4129,-2.413,-2.4058,-2.4048,-2.4139,-2.4139,-2.4139,-2.4139,-2.4139,-2.4139,-2.3985,-2.4021,-2.4017,-2.4056,-2.406,-2.4085,-2.4093,-2.4103,-2.411,-2.414,-2.4156,-2.4156,-2.416,-2.4178,-2.4195,-2.4194,-2.4201,-2.4217,-2.4213,-2.4145,-2.4135,-2.4126,-2.4116,-2.422,-2.422,-2.4282,-2.4283,-2.4283]},{"header":{"parameterUnit":"m.s-1","parameterCategory":1,"la1":30.2991,"la2":30.254,"lo1":-89.0895,"lo2":-89.0444,"dy":0.0017,"dx":0.0017,"nx":28,"ny":28,"refTime":"2023-10-18T03:00:00:Z","depth":0,"parameterNumber":3,"parameterNumberName":"V-component_of_WINDS"},"data":[0,0,0,0,0,0,0,0,0,0,0,0,0,0,0,0,0,0,0,0,0,0,0,0,0,0,0,0,0,0,0,0,0,0,0,0,0,0,0,0,0,0,0,0,0,0,0,0,0,0,0,0,0,0,0,0,0,0,2.3258,2.3257,0,2.3231,2.323,2.323,2.3272,2.3274,2.3275,2.3277,2.3243,2.324,2.3238,0,0,0,0,0,0,0,0,0,0,0,0,0,2.3342,2.334,2.3258,2.3257,2.3257,2.3231,2.323,2.323,2.3272,2.3274,2.3276,2.3277,2.3243,2.3241,2.3238,0,0,0,0,0,0,0,0,0,0,0,0,0,2.3309,2.334,2.3258,2.3275,2.3276,2.3231,2.323,2.323,2.3272,2.3274,2.3276,2.3278,2.3244,2.3241,2.3238,2.3172,0,0,2.3227,2.3226,0,0,0,0,0,0,0,0,2.3311,2.3306,2.3273,2.3274,2.3275,2.3257,2.3248,2.321,2.3271,2.3273,2.3277,2.3279,2.3245,2.3242,2.3232,2.317,2.3169,2.3227,2.3225,2.3223,2.3222,0,0,0,0,0,0,0,2.3313,2.3307,2.3247,2.3272,2.3274,2.3283,2.3281,2.3241,2.3247,2.3273,2.3276,2.3273,2.3246,2.3235,2.3231,2.3168,2.3227,2.3224,2.3222,2.322,2.3053,2.3051,0,0,0,0,0,0,2.3314,2.3309,2.3248,2.3246,2.3299,2.328,2.3277,2.3261,2.3248,2.3248,2.3271,2.3275,2.324,2.3235,2.323,2.3153,2.3223,2.322,2.3218,2.3055,2.3052,2.305,0,0,0,0,0,0,2.3315,2.3308,2.3249,2.3278,2.3271,2.3276,2.3257,2.3259,2.3248,2.3246,2.3247,2.3258,2.3241,2.3235,2.3187,2.3153,2.3219,2.3215,2.3058,2.3054,2.3051,2.2998,0,0,0,0,0,0,2.3318,2.3308,2.3284,2.3278,2.327,2.3207,2.3255,2.3257,2.3242,2.3247,2.3234,2.3234,2.3243,2.3192,2.3183,2.3149,2.3213,2.3061,2.3056,2.3052,2.3003,2.2993,2.2985,0,0,0,0,0,2.3321,2.3268,2.3283,2.3275,2.324,2.3205,2.32,2.3213,2.3239,2.3215,2.3214,2.3235,2.3158,2.3186,2.3177,2.3141,2.3063,2.3058,2.3053,2.3007,2.2995,2.2985,0,0,0,0,0,0,2.3268,2.3268,2.3284,2.3228,2.3217,2.3212,2.3181,2.3199,2.3178,2.3183,2.3198,2.3195,2.3143,2.3138,2.3169,2.3078,2.3115,2.3107,2.3083,2.3072,2.3063,2.3065,2.321,0,0,0,0,0,2.3251,2.3224,2.3224,2.3175,2.3169,2.3176,2.3161,2.3172,2.316,2.3154,2.315,2.3136,2.3109,2.309,2.3065,2.3003,2.3,2.2974,2.2965,2.2957,2.295,2.2918,2.2906,2.3032,2.3032,2.3032,0,0,2.3213,2.321,2.3191,2.3165,2.3157,2.3128,2.3171,2.3138,2.3116,2.3149,2.3104,2.31,2.3085,2.303,2.3005,2.3024,2.2915,2.295,2.2944,2.2941,2.2911,2.2899,2.2888,2.3029,2.3029,2.303,0,0,2.313,2.3125,2.3084,2.3077,2.3065,2.3071,2.3061,2.3055,2.3054,2.301,2.3034,2.3008,2.296,2.2949,2.2937,2.2853,2.2871,2.2844,2.2796,2.2764,2.2754,2.2745,2.2715,2.2704,2.2837,2.2837,2.2837,0,2.3084,2.3043,2.306,2.3026,2.3014,2.3045,2.3004,2.2994,2.2974,2.2965,2.2986,2.2929,2.2921,2.2864,2.2844,2.2833,2.2822,2.2845,2.2755,2.2746,2.2738,2.2709,2.2698,2.2834,2.2834,2.2835,2.2835,0,2.2987,2.2958,2.2926,2.2909,2.2893,2.2855,2.2867,2.2848,2.2861,2.2864,2.2819,2.2811,2.2785,2.2773,2.2784,2.2718,2.273,2.2753,2.279,2.2722,2.2696,2.2685,2.2829,2.283,2.2831,2.2832,0,0,2.2867,2.2864,2.2851,2.2845,2.2836,2.2813,2.2777,2.2755,2.2738,2.2724,2.2694,2.2655,2.2677,2.2663,2.2674,2.2646,2.258,2.2672,2.2672,2.2655,2.2507,2.2489,2.2476,2.2593,2.2591,2.2589,2.2508,0,2.2785,2.2725,2.2741,2.268,2.2653,2.2684,2.2652,2.2643,2.2645,2.2622,2.2624,2.2596,2.2627,2.2619,2.2594,2.2593,2.255,2.26,2.2563,2.2562,2.2565,2.2462,2.2443,2.2366,2.2498,2.2496,2.2495,0,2.268,2.2665,2.2602,2.26,2.2589,2.2561,2.2542,2.252,2.251,2.2514,2.25,2.2517,2.248,2.2519,2.2469,2.2502,2.2489,2.2486,2.2484,2.248,2.2523,2.2455,2.2342,2.2331,2.2478,2.248,2.2481,0,2.2599,2.2563,2.2521,2.2515,2.251,2.249,2.2487,2.248,2.2466,2.2449,2.244,2.2419,2.2406,2.2389,2.2399,2.2427,2.2347,2.2387,2.2348,2.2347,2.2328,2.2329,2.2211,2.2321,2.2321,2.2321,2.2321,0,2.2505,2.2465,2.2485,2.2459,2.2416,2.2435,2.2391,2.2391,2.2385,2.2359,2.2383,2.2358,2.2373,2.2349,2.2357,2.2314,2.2308,2.2309,2.2311,2.2307,2.2306,2.2297,2.2302,2.2318,2.2319,2.2319,2.232,0,2.2406,2.2418,2.2375,2.2376,2.2376,2.2343,2.2344,2.2319,2.2325,2.2291,2.2285,2.2292,2.2265,2.2274,2.2244,2.2249,2.2195,2.2204,2.2199,2.2201,2.2162,2.2165,2.2033,2.2017,2.2137,2.2136,2.2135,0,2.2345,2.2316,2.2315,2.23,2.2296,2.2272,2.2259,2.2277,2.2262,2.225,2.2227,2.2203,2.2184,2.2139,2.2141,2.2118,2.2127,2.2082,2.2123,2.212,2.2126,2.2128,2.2125,2.2073,2.2072,2.2071,2.207,0,2.2235,2.2243,2.2224,2.2208,2.2192,2.2179,2.2168,2.2155,2.2172,2.2154,2.2128,2.2114,2.2085,2.206,2.2041,2.2036,2.2055,2.2058,2.2047,2.2042,2.204,2.204,2.2176,2.206,2.2061,2.2062,2.2062,2.2063,2.2153,2.2129,2.2125,2.2104,2.2098,2.2088,2.2066,2.207,2.2049,2.2029,2.204,2.201,2.2002,2.1978,2.1971,2.1947,2.1964,2.1949,2.1945,2.1941,2.1936,2.2045,2.1943,2.1944,2.1944,2.1944,2.1944,0,2.2044,2.2044,2.2024,2.201,2.1993,2.2016,2.2006,2.199,2.1964,2.1956,2.1938,2.1908,2.1885,2.1886,2.1865,2.1845,2.1854,2.1839,2.184,2.1839,2.1922,2.1933,2.1833,2.1833,2.1833,2.1833,2.1833,2.1833,2.1985,2.1946,2.1954,2.1913,2.1913,2.1885,2.1877,2.1868,2.1862,2.1829,2.1811,2.1813,2.1809,2.1787,2.1767,2.1768,2.1758,2.174,2.1744,2.1822,2.1833,2.1843,2.1854,2.1738,2.1738,2.1663,2.1662,2.1662]}]]